Rochester/St. Mary\'s Hospita, MN

9:15 PM CST on December 08, 2019 (GMT -0600)
Rochester/St. Mary\'s Hospita

Weather History for K9MN - October, 2019

Change the Weather History Date:

Saturday, October 12, 2019

  Actual Average (KRST) Record (KRST)
Temperature  
Mean Temperature 33 °F -  
Max Temperature 36 °F 56 °F 85 °F (1975)
Min Temperature 30 °F 38 °F 23 °F (1988)
Degree Days  
Heating Degree Days 32    
Moisture  
Dew Point 27 °F    
Average Humidity 78    
Maximum Humidity 96    
Minimum Humidity 69    
Precipitation  
Precipitation 0.00 in - - ()
Sea Level Pressure  
Sea Level Pressure 29.72 in    
Wind  
Wind Speed 15 mph (SW)    
Max Wind Speed 23 mph    
Max Gust Speed 31 mph    
Visibility 9 miles    
Events      
Averages and records for this station are not official NWS values.
T = Trace of Precipitation, MM = Missing Value Source: NWS Daily Summary

Daily Weather History Graph

Daily Weather History Graph

Search for Another Location

Airport or City:

Astronomy

Oct. 12, 2019 Rise Set
Actual Time 7:20 AM CDT 6:31 PM CDT
Civil Twilight 6:51 AM CDT 7:00 PM CDT
Nautical Twilight 6:18 AM CDT 7:33 PM CDT
Astronomical Twilight 5:44 AM CDT 8:07 PM CDT
Moon 6:31 PM CDT (10/12) 5:52 AM CDT (10/12)
Length of Visible Light 12h 08m
Length of Day
11h 10m
Waxing Gibbous, 99% of the Moon is Illuminated
Oct 12
Waxing Gibbous
Oct 13
Full
Oct 21
Last Quarter
Oct 27
New
Nov 4
First Quarter

Hourly Weather History & Observations

Time (CDT) Temp. Windchill Dew Point Humidity Pressure Visibility Wind Dir Wind Speed Gust Speed Precip Events Conditions
12:15 AM 34.7 °F 24.0 °F 25.7 °F 70% 29.82 in 10.0 mi SW 18.4 mph 28.8 mph N/A   Overcast
12:16 AM 34.7 °F 24.3 °F 25.5 °F 69% 29.82 in 10.0 mi SW 17.3 mph 28.8 mph N/A   Overcast
12:35 AM 34.2 °F 24.0 °F 25.2 °F 70% 29.81 in 10.0 mi SW 16.1 mph 23.0 mph N/A   Overcast
12:55 AM 34.0 °F 24.2 °F 24.8 °F 69% 29.81 in 10.0 mi SW 15.0 mph 28.8 mph N/A   Mostly Cloudy
1:15 AM 33.8 °F 23.5 °F 24.6 °F 69% 29.81 in 10.0 mi SW 16.1 mph 27.6 mph N/A   Overcast
1:16 AM 33.6 °F 23.7 °F 24.6 °F 70% 29.81 in 10.0 mi SW 15.0 mph 27.6 mph N/A   Mostly Cloudy
1:35 AM 33.1 °F 22.6 °F 24.4 °F 71% 29.81 in 10.0 mi WSW 16.1 mph 24.2 mph N/A   Scattered Clouds
1:36 AM 33.1 °F 22.2 °F 24.4 °F 71% 29.80 in 10.0 mi WSW 17.3 mph 27.6 mph N/A   Scattered Clouds
1:55 AM 32.9 °F 23.2 °F 24.3 °F 71% 29.81 in 10.0 mi WSW 13.8 mph 26.5 mph N/A   Clear
2:15 AM 32.5 °F 21.9 °F 23.9 °F 70% 29.80 in 10.0 mi SW 16.1 mph 26.5 mph N/A   Clear
2:35 AM 32.2 °F 20.7 °F 23.9 °F 72% 29.80 in 10.0 mi SW 18.4 mph 27.6 mph N/A   Clear
2:36 AM 32.2 °F 20.7 °F 23.9 °F 72% 29.79 in 10.0 mi SW 18.4 mph 27.6 mph N/A   Clear
2:55 AM 32.0 °F 22.1 °F 23.5 °F 71% 29.79 in 10.0 mi SW 13.8 mph 23.0 mph N/A   Clear
2:56 AM 32.0 °F 22.1 °F 23.5 °F 71% 29.79 in 10.0 mi SW 13.8 mph 23.0 mph N/A   Clear
3:15 AM 32.0 °F 20.8 °F 23.5 °F 71% 29.78 in 10.0 mi WSW 17.3 mph 27.6 mph N/A   Clear
3:35 AM 31.6 °F 20.4 °F 23.4 °F 71% 29.77 in 10.0 mi WSW 17.3 mph 26.5 mph N/A   Clear
3:36 AM 31.6 °F 20.4 °F 23.4 °F 71% 29.78 in 10.0 mi SW 17.3 mph 26.5 mph N/A   Clear
3:55 AM 31.6 °F 22.6 °F 23.4 °F 71% 29.77 in 10.0 mi WSW 11.5 mph 25.3 mph N/A   Clear
3:56 AM 31.5 °F 21.4 °F 23.4 °F 72% 29.77 in 10.0 mi SW 13.8 mph 25.3 mph N/A   Clear
4:15 AM 31.5 °F 22.3 °F 23.4 °F 72% 29.77 in 10.0 mi SW 11.5 mph 25.3 mph N/A   Clear
4:35 AM 31.5 °F 21.4 °F 23.0 °F 71% 29.76 in 10.0 mi SW 13.8 mph 24.2 mph N/A   Clear
4:55 AM 31.5 °F 21.4 °F 23.2 °F 71% 29.76 in 10.0 mi SW 13.8 mph 19.6 mph N/A   Clear
4:56 AM 31.5 °F 21.8 °F 23.0 °F 71% 29.76 in 10.0 mi SW 12.7 mph 19.6 mph N/A   Clear
5:15 AM 31.1 °F 22.4 °F 22.8 °F 71% 29.76 in 10.0 mi SW 10.4 mph 24.2 mph N/A   Clear
5:16 AM 31.1 °F 21.9 °F 22.8 °F 71% 29.76 in 10.0 mi SW 11.5 mph 24.2 mph N/A   Clear
5:35 AM 31.1 °F 21.4 °F 23.0 °F 72% 29.75 in 10.0 mi SW 12.7 mph 21.9 mph N/A   Clear
5:55 AM 31.1 °F 20.1 °F 23.0 °F 72% 29.74 in 10.0 mi SSW 16.1 mph 24.2 mph N/A   Clear
6:15 AM 31.1 °F 22.4 °F 23.0 °F 72% 29.74 in 10.0 mi SW 10.4 mph 23.0 mph N/A   Clear
6:16 AM 31.1 °F 20.9 °F 23.0 °F 72% 29.75 in 10.0 mi SW 13.8 mph 23.0 mph N/A   Clear
6:35 AM 31.1 °F 20.1 °F 23.0 °F 72% 29.74 in 10.0 mi SSW 16.1 mph 23.0 mph N/A   Clear
6:36 AM 30.9 °F 21.7 °F 23.0 °F 72% 29.74 in 10.0 mi SW 11.5 mph 23.0 mph N/A   Clear
6:55 AM 30.9 °F 19.8 °F 23.4 °F 74% 29.74 in 10.0 mi SSW 16.1 mph 25.3 mph N/A   Mostly Cloudy
7:15 AM 30.9 °F 21.7 °F 23.5 °F 74% 29.73 in 10.0 mi SW 11.5 mph 23.0 mph N/A   Scattered Clouds
7:35 AM 30.9 °F 21.7 °F 23.5 °F 74% 29.73 in 10.0 mi SSW 11.5 mph 25.3 mph N/A   Scattered Clouds
7:36 AM 30.9 °F 22.2 °F 23.7 °F 75% 29.73 in 10.0 mi SW 10.4 mph 25.3 mph N/A   Scattered Clouds
7:55 AM 31.1 °F 22.4 °F 24.1 °F 75% 29.73 in 10.0 mi SW 10.4 mph 19.6 mph N/A   Mostly Cloudy
7:56 AM 31.3 °F 20.7 °F 24.3 °F 75% 29.73 in 10.0 mi SW 15.0 mph 24.2 mph N/A   Mostly Cloudy
8:15 AM 31.5 °F 21.4 °F 24.3 °F 75% 29.73 in 10.0 mi SSW 13.8 mph 20.7 mph N/A   Overcast
8:35 AM 31.6 °F 20.4 °F 24.1 °F 74% 29.73 in 10.0 mi SSW 17.3 mph 28.8 mph N/A   Overcast
8:55 AM 32.0 °F 22.1 °F 24.1 °F 73% 29.72 in 10.0 mi SW 13.8 mph 24.2 mph N/A   Overcast
8:56 AM 32.0 °F 20.8 °F 24.1 °F 73% 29.72 in 10.0 mi SW 17.3 mph 24.2 mph N/A   Overcast
9:15 AM 32.2 °F 21.4 °F 24.4 °F 73% 29.71 in 10.0 mi SW 16.1 mph 29.9 mph N/A   Overcast
9:16 AM 32.2 °F 21.8 °F 24.4 °F 73% 29.71 in 10.0 mi SW 15.0 mph 29.9 mph N/A   Overcast
9:35 AM 32.4 °F 22.1 °F 24.8 °F 74% 29.70 in 10.0 mi SW 15.0 mph 26.5 mph N/A   Overcast
9:55 AM 32.9 °F 22.0 °F 25.5 °F 74% 29.70 in 10.0 mi SW 17.3 mph 25.3 mph N/A   Overcast
10:15 AM 33.6 °F 22.9 °F 26.1 °F 74% 29.69 in 10.0 mi SW 17.3 mph 28.8 mph N/A   Overcast
10:16 AM 33.6 °F 23.7 °F 26.1 °F 74% 29.69 in 10.0 mi SW 15.0 mph 28.8 mph N/A   Overcast
10:35 AM 33.4 °F 21.7 °F 27.1 °F 78% 29.68 in 10.0 mi SW 20.7 mph 29.9 mph N/A   Overcast
10:36 AM 33.4 °F 22.7 °F 27.0 °F 77% 29.68 in 10.0 mi WSW 17.3 mph 29.9 mph N/A   Overcast
10:55 AM 33.6 °F 22.2 °F 26.6 °F 75% 29.68 in 10.0 mi SW 19.6 mph 27.6 mph N/A   Overcast
11:15 AM 34.2 °F 22.1 °F 26.6 °F 74% 29.68 in 10.0 mi SW 23.0 mph 29.9 mph N/A   Overcast
11:35 AM 34.2 °F 24.8 °F 27.1 °F 75% 29.69 in 10.0 mi SW 13.8 mph 31.1 mph N/A   Overcast
11:36 AM 34.3 °F 24.6 °F 27.1 °F 75% 29.69 in 10.0 mi SW 15.0 mph 31.1 mph N/A   Overcast
11:55 AM 34.7 °F 24.7 °F 27.0 °F 73% 29.69 in 10.0 mi WSW 16.1 mph 24.2 mph N/A   Overcast
11:56 AM 34.7 °F 26.4 °F 27.0 °F 73% 29.69 in 10.0 mi WSW 11.5 mph 24.2 mph N/A   Overcast
12:15 PM 34.7 °F 23.7 °F 27.5 °F 75% 29.69 in 10.0 mi SW 19.6 mph 29.9 mph N/A   Overcast
12:35 PM 33.4 °F 23.1 °F 30.0 °F 87% 29.69 in 1.8 mi SW 16.1 mph 26.5 mph N/A   Overcast
12:55 PM 32.7 °F 23.9 °F 30.9 °F 93% 29.69 in 1.5 mi SW 11.5 mph 24.2 mph N/A   Overcast
12:56 PM 32.7 °F 23.4 °F 31.1 °F 94% 29.69 in 1.5 mi SW 12.7 mph 24.2 mph N/A   Overcast
1:15 PM 32.9 °F 22.4 °F 31.6 °F 95% 29.68 in 1.8 mi SW 16.1 mph 25.3 mph N/A   Overcast
1:16 PM 32.9 °F 23.7 °F 31.5 °F 94% 29.68 in 1.8 mi SSW 12.7 mph 25.3 mph N/A   Overcast
1:35 PM 32.9 °F 24.7 °F 31.8 °F 96% 29.68 in 1.8 mi SW 10.4 mph 23.0 mph N/A   Overcast
1:55 PM 33.1 °F 21.9 °F 32.0 °F 96% 29.68 in 2.0 mi SW 18.4 mph 25.3 mph N/A   Overcast
2:15 PM 33.3 °F 22.8 °F 32.0 °F 95% 29.67 in 2.0 mi SW 16.1 mph 26.5 mph N/A   Overcast
2:16 PM 33.3 °F 24.1 °F 32.0 °F 95% 29.68 in 2.0 mi SW 12.7 mph 26.5 mph N/A   Overcast
2:35 PM 33.3 °F 22.8 °F 32.2 °F 96% 29.68 in 2.0 mi SW 16.1 mph 28.8 mph N/A   Overcast
2:36 PM 33.3 °F 21.5 °F 32.2 °F 96% 29.67 in 2.0 mi SW 20.7 mph 28.8 mph N/A   Overcast
2:55 PM 33.8 °F 23.9 °F 32.7 °F 96% 29.68 in 5.0 mi SW 15.0 mph 26.5 mph N/A   Overcast
3:15 PM 34.9 °F 23.9 °F 33.1 °F 93% 29.67 in 10.0 mi SW 19.6 mph 29.9 mph N/A   Overcast
3:35 PM 35.1 °F 24.8 °F 32.2 °F 89% 29.68 in 10.0 mi SW 17.3 mph 31.1 mph N/A   Overcast
3:36 PM 35.1 °F 25.2 °F 32.2 °F 89% 29.68 in 10.0 mi WSW 16.1 mph 31.1 mph N/A   Overcast
3:55 PM 35.1 °F 25.2 °F 32.0 °F 89% 29.67 in 10.0 mi SW 16.1 mph 25.3 mph N/A   Overcast
3:56 PM 35.1 °F 24.8 °F 32.0 °F 89% 29.67 in 10.0 mi SW 17.3 mph 25.3 mph N/A   Overcast
4:15 PM 35.2 °F 26.2 °F 31.6 °F 87% 29.67 in 10.0 mi WSW 13.8 mph 28.8 mph N/A   Overcast
4:16 PM 35.2 °F 26.2 °F 31.8 °F 87% 29.67 in 10.0 mi WSW 13.8 mph 28.8 mph N/A   Overcast
4:55 PM 35.1 °F 24.5 °F 31.6 °F 87% 29.68 in 10.0 mi SW 18.4 mph 28.8 mph N/A   Overcast
5:15 PM 35.6 °F 26.6 °F 30.4 °F 81% 29.68 in 10.0 mi WSW 13.8 mph 27.6 mph N/A   Overcast
5:16 PM 35.6 °F 25.9 °F 30.2 °F 81% 29.68 in 10.0 mi WSW 16.1 mph 26.5 mph N/A   Overcast
5:35 PM 35.8 °F 26.9 °F 30.0 °F 80% 29.68 in 10.0 mi WSW 13.8 mph 28.8 mph N/A   Overcast
5:55 PM 35.8 °F 26.9 °F 29.7 °F 78% 29.69 in 10.0 mi WSW 13.8 mph 23.0 mph N/A   Overcast
6:15 PM 35.8 °F 25.4 °F 29.8 °F 79% 29.68 in 10.0 mi WSW 18.4 mph 26.5 mph N/A   Overcast
6:35 PM 36.0 °F 27.1 °F 29.8 °F 78% 29.68 in 10.0 mi WSW 13.8 mph 23.0 mph N/A   Overcast
6:36 PM 36.0 °F 26.7 °F 29.8 °F 78% 29.68 in 10.0 mi WSW 15.0 mph 23.0 mph N/A   Overcast
6:55 PM 36.0 °F 27.5 °F 29.7 °F 78% 29.69 in 10.0 mi WSW 12.7 mph 25.3 mph N/A   Overcast
6:56 PM 36.0 °F 28.0 °F 29.7 °F 78% 29.69 in 10.0 mi WSW 11.5 mph 25.3 mph N/A   Overcast
7:15 PM 36.1 °F 27.3 °F 29.7 °F 77% 29.69 in 10.0 mi WSW 13.8 mph 25.3 mph N/A   Overcast
7:35 PM 36.5 °F 29.2 °F 29.5 °F 76% 29.70 in 10.0 mi WSW 10.4 mph 25.3 mph N/A   Overcast
7:55 PM 36.5 °F 27.4 °F 29.5 °F 76% 29.70 in 10.0 mi WSW 15.0 mph 21.9 mph N/A   Overcast
7:56 PM 36.5 °F 27.0 °F 29.7 °F 76% 29.70 in 10.0 mi WSW 16.1 mph 23.0 mph N/A   Overcast
8:15 PM 36.3 °F 27.1 °F 29.5 °F 76% 29.70 in 10.0 mi WSW 15.0 mph 29.9 mph N/A   Overcast
8:35 PM 36.1 °F 26.9 °F 29.8 °F 78% 29.69 in 10.0 mi WSW 15.0 mph 25.3 mph N/A   Overcast
8:55 PM 35.8 °F 26.1 °F 29.7 °F 78% 29.70 in 10.0 mi WSW 16.1 mph 26.5 mph N/A   Overcast
8:56 PM 35.8 °F 26.5 °F 29.5 °F 78% 29.69 in 10.0 mi West 15.0 mph 26.5 mph N/A   Overcast
9:15 PM 35.6 °F 26.6 °F 29.1 °F 77% 29.70 in 10.0 mi WSW 13.8 mph 29.9 mph N/A   Overcast
9:16 PM 35.6 °F 26.6 °F 29.1 °F 77% 29.69 in 10.0 mi WSW 13.8 mph 29.9 mph N/A   Overcast
9:35 PM 35.6 °F 25.9 °F 29.3 °F 78% 29.69 in 10.0 mi WSW 16.1 mph 24.2 mph N/A   Overcast
9:55 PM 35.2 °F 26.6 °F 29.3 °F 79% 29.70 in 10.0 mi WSW 12.7 mph 26.5 mph N/A   Overcast
10:15 PM 35.1 °F 24.8 °F 29.3 °F 80% 29.69 in 10.0 mi WSW 17.3 mph 25.3 mph N/A   Overcast
10:35 PM 35.1 °F 26.4 °F 29.3 °F 80% 29.69 in 10.0 mi WSW 12.7 mph 24.2 mph N/A   Overcast
10:36 PM 35.1 °F 26.9 °F 29.3 °F 80% 29.69 in 10.0 mi WSW 11.5 mph 23.0 mph N/A   Overcast
10:55 PM 35.1 °F 25.9 °F 29.3 °F 80% 29.69 in 10.0 mi West 13.8 mph 24.2 mph N/A   Overcast
11:15 PM 35.1 °F 24.5 °F 29.8 °F 81% 29.69 in 10.0 mi WSW 18.4 mph 27.6 mph N/A   Overcast
11:35 PM 35.2 °F 26.2 °F 30.0 °F 81% 29.70 in 10.0 mi West 13.8 mph 25.3 mph N/A   Overcast
11:55 PM 35.1 °F 26.4 °F 29.8 °F 81% 29.69 in 10.0 mi WSW 12.7 mph 19.6 mph N/A   Overcast
11:56 PM 35.1 °F 27.4 °F 29.8 °F 81% 29.69 in 10.0 mi West 10.4 mph 19.6 mph N/A   Overcast